Location: Dana
(41.8364°N, 106.7042°W)
Time: 14:49:41
(UTC+00:00)

Tiros 1 despin weight - Pass Details

Date: 16 May 2026
Orbit: 554 x 591 km, 48.2° (Epoch: 6 June)

Event Time Altitude Azimuth Distance (km) Brightness Sun altitude
Rises 12:01:04 0° 241° (WSW) 2,756 ? 1.8°
Reaches altitude 10° 12:03:20 10° 241° (WSW) 1,855 ? 2.1°
Maximum altitude 12:07:35 89° 160° (SSE) 566 ? 2.9°
Drops below altitude 10° 12:11:48 10° 63° (ENE) 1,843 ? 3.6°
Sets 12:14:03 0° 63° (ENE) 2,737 ? 4.0°
